sat.trackr.live / text

‹ back to catalog

STARLINK-33735

NORAD 63474 · 2025-070Q

PAYLOAD ACTIVE UNKNOWN

§ Identity

Operator
Country
US
Launch date
2025-04-06
Launch site
AFETR
Launch vehicle
Mass (kg)
RCS (m²)

Purposes: comms

External: N2YO · Heavens-Above · Gunter

§ Orbital elements

Epoch: 2026-09-20T23:18:23.239584Z

Period
94.27 min
Inclination
43.0013°
Eccentricity
0.0001316
Mean motion
15.27586292 rev/d
Perigee alt
482.1 km
Apogee alt
483.9 km
Semi-major
6,861.2 km
B*
5.0612e-4
RAAN
236.8224°
Arg perigee
266.6923°
Mean anomaly
93.3778°
Rev number
8,284

§ Raw data

STARLINK-337351 63474U 25070Q   26263.97110231  .00013694  00000+0  50612-3 0  99902 63474  43.0013 236.8224 0001316 266.6923  93.3778 15.27586292 82845

JSON: /api/v1/satellites/63474 · /tle

For live sub-satellite position, see the globe view (requires WebGL).

§ Visibility from observer

Set your observer location to see the next 7 days of passes ≥ 10°. The values pass through the URL so the page stays shareable.

No JS? Fill the form by hand. The geolocation button needs JavaScript.